| time (UTC) | temp C | wind direction | speed KPH | gust KPH | rain 1hr cm | rain 24hr cm | rain mn cm | humidity % | barometer mb |
| 20260504215528 | 24 | 182 | 6.4 | 14.5 | 0.00 | 0.08 | 0.08 | 45 | 1017.5 |
| 20260504215026 | 24 | 180 | 3.2 | 20.9 | 0.00 | 0.08 | 0.08 | 47 | 1017.5 |
| 20260504214522 | 25 | 183 | 4.8 | 19.3 | 0.00 | 0.08 | 0.08 | 46 | 1017.7 |
| 20260504214018 | 25 | 100 | 8.0 | 8.0 | 0.00 | 0.08 | 0.08 | 43 | 1017.4 |
| 20260504213515 | 24 | 179 | 3.2 | 14.5 | 0.00 | 0.08 | 0.08 | 44 | 1017.7 |
| 20260504213012 | 25 | 215 | 12.9 | 19.3 | 0.00 | 0.08 | 0.08 | 42 | 1017.8 |
| 20260504212508 | 25 | 167 | 6.4 | 12.9 | 0.00 | 0.08 | 0.08 | 45 | 1017.8 |
| 20260504212005 | 25 | 234 | 9.7 | 16.1 | 0.00 | 0.08 | 0.08 | 44 | 1017.9 |
| 20260504211502 | 25 | 245 | 8.0 | 25.7 | 0.00 | 0.08 | 0.08 | 42 | 1018.0 |
| 20260504210959 | 25 | 194 | 12.9 | 16.1 | 0.00 | 0.08 | 0.08 | 42 | 1017.9 |
| 20260504210456 | 25 | 218 | 17.7 | 19.3 | 0.00 | 0.08 | 0.08 | 40 | 1018.1 |
| 20260504205953 | 25 | 215 | 20.9 | 20.9 | 0.00 | 0.08 | 0.08 | 43 | 1018.0 |
| 20260504205450 | 25 | 161 | 6.4 | 17.7 | 0.00 | 0.08 | 0.08 | 43 | 1018.0 |
| 20260504204948 | 25 | 214 | 11.3 | 17.7 | 0.00 | 0.08 | 0.08 | 41 | 1018.1 |
| 20260504204446 | 25 | 171 | 9.7 | 17.7 | 0.00 | 0.08 | 0.08 | 41 | 1018.3 |
| 20260504203945 | 25 | 193 | 4.8 | 11.3 | 0.00 | 0.08 | 0.08 | 47 | 1018.2 |
| 20260504203443 | 25 | 88 | 4.8 | 6.4 | 0.00 | 0.08 | 0.08 | 42 | 1018.4 |
| 20260504202938 | 25 | 193 | 3.2 | 17.7 | 0.00 | 0.08 | 0.08 | 42 | 1018.4 |
| 20260504202435 | 25 | 136 | 6.4 | 19.3 | 0.00 | 0.08 | 0.08 | 44 | 1018.6 |
| 20260504201932 | 25 | 265 | 6.4 | 22.5 | 0.00 | 0.08 | 0.08 | 43 | 1018.6 |
| 20260504201429 | 25 | 219 | 9.7 | 14.5 | 0.00 | 0.08 | 0.08 | 44 | 1018.6 |
| 20260504200927 | 25 | 197 | 6.4 | 14.5 | 0.00 | 0.08 | 0.08 | 47 | 1018.8 |
| 20260504200423 | 25 | 187 | 9.7 | 17.7 | 0.00 | 0.08 | 0.08 | 44 | 1019.1 |
| 20260504195920 | 25 | 224 | 4.8 | 6.4 | 0.00 | 0.08 | 0.08 | 45 | 1018.9 |
| 20260504195416 | 25 | 231 | 8.0 | 11.3 | 0.00 | 0.08 | 0.08 | 42 | 1018.8 |
| 20260504194913 | 25 | 180 | 11.3 | 24.1 | 0.00 | 0.08 | 0.08 | 42 | 1018.9 |
| 20260504194408 | 25 | 219 | 9.7 | 14.5 | 0.00 | 0.08 | 0.08 | 44 | 1019.2 |
| 20260504193905 | 25 | 204 | 6.4 | 17.7 | 0.00 | 0.08 | 0.08 | 45 | 1019.4 |
| 20260504193402 | 25 | 199 | 8.0 | 16.1 | 0.00 | 0.08 | 0.08 | 43 | 1019.5 |
| 20260504192901 | 25 | 167 | 1.6 | 6.4 | 0.00 | 0.08 | 0.08 | 41 | 1019.4 |
| 20260504192358 | 25 | 219 | 4.8 | 8.0 | 0.00 | 0.08 | 0.08 | 49 | 1019.7 |
| 20260504191856 | 25 | 225 | 11.3 | 17.7 | 0.00 | 0.08 | 0.08 | 44 | 1019.5 |
| 20260504191354 | 25 | 231 | 12.9 | 17.7 | 0.00 | 0.08 | 0.08 | 43 | 1019.7 |
| 20260504190849 | 25 | 231 | 8.0 | 12.9 | 0.00 | 0.08 | 0.08 | 43 | 1019.7 |
| 20260504190345 | 25 | 212 | 11.3 | 16.1 | 0.00 | 0.08 | 0.08 | 44 | 1019.5 |
| 20260504185842 | 25 | 228 | 6.4 | 16.1 | 0.00 | 0.08 | 0.08 | 45 | 1019.9 |
| 20260504185339 | 25 | 192 | 6.4 | 9.7 | 0.00 | 0.08 | 0.08 | 49 | 1020.0 |
| 20260504184835 | 25 | 224 | 9.7 | 11.3 | 0.00 | 0.08 | 0.08 | 49 | 1019.9 |
| 20260504184331 | 24 | 204 | 3.2 | 8.0 | 0.00 | 0.08 | 0.08 | 50 | 1019.7 |
| 20260504183827 | 24 | 196 | 6.4 | 17.7 | 0.00 | 0.08 | 0.08 | 49 | 1019.8 |
| 20260504183324 | 25 | 118 | 4.8 | 9.7 | 0.00 | 0.08 | 0.08 | 44 | 1019.8 |
| 20260504182822 | 25 | 226 | 3.2 | 16.1 | 0.00 | 0.08 | 0.08 | 44 | 1019.9 |
| 20260504182319 | 25 | 48 | 6.4 | 6.4 | 0.00 | 0.08 | 0.08 | 43 | 1019.9 |
| 20260504181816 | 24 | 222 | 8.0 | 17.7 | 0.00 | 0.08 | 0.08 | 44 | 1019.9 |
| 20260504181314 | 24 | 204 | 9.7 | 17.7 | 0.00 | 0.08 | 0.08 | 45 | 1020.2 |
| 20260504180813 | 25 | 205 | 20.9 | 22.5 | 0.00 | 0.08 | 0.08 | 43 | 1020.3 |
| 20260504180311 | 25 | 311 | 0.0 | 6.4 | 0.00 | 0.08 | 0.08 | 49 | 1020.2 |
| 20260504175808 | 24 | 235 | 6.4 | 24.1 | 0.00 | 0.08 | 0.08 | 45 | 1020.5 |
| 20260504175305 | 25 | 215 | 8.0 | 11.3 | 0.00 | 0.08 | 0.08 | 42 | 1020.4 |
| 20260504174803 | 25 | 194 | 8.0 | 8.0 | 0.00 | 0.08 | 0.08 | 47 | 1020.7 |
| 20260504174300 | 24 | 189 | 4.8 | 8.0 | 0.00 | 0.08 | 0.08 | 47 | 1020.5 |
| 20260504173757 | 24 | 201 | 8.0 | 16.1 | 0.00 | 0.08 | 0.08 | 43 | 1020.6 |
| 20260504173254 | 24 | 146 | 8.0 | 11.3 | 0.00 | 0.08 | 0.08 | 46 | 1020.7 |
| 20260504172750 | 24 | 212 | 12.9 | 19.3 | 0.00 | 0.08 | 0.08 | 45 | 1020.6 |
| 20260504172247 | 23 | 197 | 0.0 | 9.7 | 0.00 | 0.08 | 0.08 | 45 | 1020.7 |
| 20260504171743 | 23 | 200 | 3.2 | 4.8 | 0.00 | 0.08 | 0.08 | 48 | 1020.9 |
| 20260504171240 | 23 | 215 | 12.9 | 17.7 | 0.00 | 0.08 | 0.08 | 49 | 1020.9 |
| 20260504170737 | 23 | 205 | 6.4 | 17.7 | 0.00 | 0.08 | 0.08 | 45 | 1021.2 |
| 20260504170235 | 23 | 203 | 16.1 | 17.7 | 0.00 | 0.08 | 0.08 | 45 | 1021.0 |
| 20260504160153 | 22 | 169 | 6.4 | 22.5 | 0.00 | 0.08 | 0.08 | 54 | 1021.3 |
| 20260504151121 | 21 | 254 | 6.4 | 8.0 | 0.00 | 0.08 | 0.08 | 58 | 1021.5 |
| 20260504150618 | 21 | 201 | 8.0 | 9.7 | 0.00 | 0.08 | 0.08 | 60 | 1021.4 |
| 20260504150115 | 21 | 60 | 0.0 | 1.6 | 0.00 | 0.08 | 0.08 | 62 | 1021.5 |
| 20260504141044 | 17 | 204 | 8.0 | 9.7 | 0.00 | 0.00 | 0.00 | 79 | 1021.8 |
| 20260504140540 | 17 | 237 | 8.0 | 9.7 | 0.00 | 0.00 | 0.00 | 86 | 1021.7 |
| 20260504130504 | 11 | 348 | 1.6 | 3.2 | 0.00 | 0.00 | 0.00 | 99 | 1021.5 |
| 20260504110351 | 8 | 287 | 1.6 | 3.2 | 0.00 | 0.00 | 0.00 | 99 | 1021.0 |
| 20260504100309 | 8 | 322 | 1.6 | 3.2 | 0.00 | 0.00 | 0.00 | 99 | 1020.9 |
| 20260504081703 | 10 | 320 | 1.6 | 3.2 | 0.00 | 0.00 | 0.00 | 99 | 1021.3 |
| 20260504081159 | 10 | 306 | 3.2 | 4.8 | 0.00 | 0.00 | 0.00 | 99 | 1021.5 |
| 20260504080655 | 10 | 311 | 1.6 | 3.2 | 0.00 | 0.00 | 0.00 | 99 | 1021.1 |
| 20260504080152 | 10 | 332 | 1.6 | 3.2 | 0.00 | 0.00 | 0.00 | 99 | 1021.1 |
| 20260504070120 | 10 | 34 | 0.0 | 0.0 | 0.00 | 0.00 | 0.00 | 99 | 1021.8 |
| 20260504050508 | 11 | 323 | 3.2 | 3.2 | 0.00 | 0.00 | 0.00 | 98 | 1022.5 |
| 20260504050005 | 11 | 330 | 3.2 | 3.2 | 0.00 | 0.00 | 0.00 | 98 | 1022.6 |
| 20260504045501 | 11 | 307 | 0.0 | 3.2 | 0.00 | 0.00 | 0.00 | 98 | 1022.6 |
| 20260504044957 | 12 | 319 | 0.0 | 3.2 | 0.00 | 0.00 | 0.00 | 98 | 1022.4 |
| 20260504044455 | 12 | 319 | 0.0 | 3.2 | 0.00 | 0.00 | 0.00 | 98 | 1022.7 |
| 20260504043952 | 12 | 293 | 1.6 | 3.2 | 0.00 | 0.00 | 0.00 | 98 | 1022.5 |
| 20260504043449 | 12 | 323 | 3.2 | 3.2 | 0.00 | 0.00 | 0.00 | 98 | 1022.7 |
| 20260504042946 | 12 | 342 | 3.2 | 4.8 | 0.00 | 0.00 | 0.00 | 97 | 1022.6 |
| 20260504042443 | 12 | 327 | 4.8 | 4.8 | 0.00 | 0.00 | 0.00 | 97 | 1022.8 |
| 20260504041940 | 12 | 325 | 3.2 | 3.2 | 0.00 | 0.00 | 0.00 | 97 | 1022.5 |
| 20260504041436 | 12 | 277 | 1.6 | 3.2 | 0.00 | 0.00 | 0.00 | 97 | 1022.7 |
| 20260504040932 | 12 | 295 | 3.2 | 4.8 | 0.00 | 0.00 | 0.00 | 97 | 1022.5 |
| 20260504040430 | 12 | 330 | 4.8 | 4.8 | 0.00 | 0.00 | 0.00 | 97 | 1022.7 |
| 20260504035925 | 12 | 334 | 3.2 | 3.2 | 0.00 | 0.00 | 0.00 | 97 | 1022.7 |
| 20260504035423 | 12 | 296 | 1.6 | 1.6 | 0.00 | 0.00 | 0.00 | 97 | 1022.7 |
| 20260504034919 | 12 | 328 | 3.2 | 3.2 | 0.00 | 0.00 | 0.00 | 97 | 1022.7 |
| 20260504034417 | 12 | 333 | 3.2 | 3.2 | 0.00 | 0.00 | 0.00 | 97 | 1022.6 |
| 20260504033914 | 12 | 327 | 3.2 | 3.2 | 0.00 | 0.00 | 0.00 | 97 | 1022.7 |
| 20260504033412 | 12 | 331 | 3.2 | 3.2 | 0.00 | 0.00 | 0.00 | 97 | 1022.7 |
| 20260504032909 | 13 | 332 | 3.2 | 4.8 | 0.00 | 0.00 | 0.00 | 96 | 1022.4 |
| 20260504032405 | 13 | 310 | 3.2 | 3.2 | 0.00 | 0.00 | 0.00 | 96 | 1022.6 |
| 20260504031902 | 13 | 323 | 3.2 | 3.2 | 0.00 | 0.00 | 0.00 | 96 | 1022.7 |
| 20260504031359 | 13 | 332 | 3.2 | 3.2 | 0.00 | 0.00 | 0.00 | 96 | 1022.7 |
| 20260504030855 | 13 | 325 | 1.6 | 3.2 | 0.00 | 0.00 | 0.00 | 96 | 1022.7 |
| 20260504030353 | 13 | 323 | 3.2 | 3.2 | 0.00 | 0.00 | 0.00 | 96 | 1022.6 |
| 20260504025849 | 13 | 328 | 1.6 | 3.2 | 0.00 | 0.00 | 0.00 | 95 | 1022.6 |
| 20260504025346 | 13 | 324 | 1.6 | 3.2 | 0.00 | 0.00 | 0.00 | 95 | 1022.9 |
| 20260504024843 | 13 | 331 | 1.6 | 3.2 | 0.00 | 0.00 | 0.00 | 95 | 1022.7 |
| 20260504024339 | 13 | 313 | 1.6 | 3.2 | 0.00 | 0.00 | 0.00 | 94 | 1022.5 |
| 20260504023836 | 13 | 280 | 0.0 | 1.6 | 0.00 | 0.00 | 0.00 | 94 | 1022.4 |
| 20260504023333 | 13 | 315 | 3.2 | 3.2 | 0.00 | 0.00 | 0.00 | 94 | 1022.5 |
| 20260504022828 | 13 | 312 | 3.2 | 3.2 | 0.00 | 0.00 | 0.00 | 93 | 1022.3 |
| 20260504022326 | 14 | 301 | 1.6 | 3.2 | 0.00 | 0.00 | 0.00 | 93 | 1022.3 |
| 20260504021822 | 14 | 296 | 3.2 | 3.2 | 0.00 | 0.00 | 0.00 | 93 | 1022.5 |
| 20260504021320 | 14 | 312 | 3.2 | 4.8 | 0.00 | 0.00 | 0.00 | 92 | 1022.3 |
| 20260504020816 | 14 | 293 | 1.6 | 3.2 | 0.00 | 0.00 | 0.00 | 91 | 1022.4 |
| 20260504020313 | 15 | 326 | 3.2 | 3.2 | 0.00 | 0.00 | 0.00 | 91 | 1022.2 |
| 20260504015809 | 15 | 271 | 1.6 | 3.2 | 0.00 | 0.00 | 0.00 | 90 | 1022.1 |
| 20260504015305 | 15 | 303 | 0.0 | 0.0 | 0.00 | 0.00 | 0.00 | 89 | 1022.1 |
| 20260504014801 | 15 | 308 | 0.0 | 3.2 | 0.00 | 0.00 | 0.00 | 88 | 1022.1 |
| 20260504014258 | 15 | 317 | 3.2 | 3.2 | 0.00 | 0.00 | 0.00 | 87 | 1021.9 |
| 20260504013755 | 15 | 333 | 1.6 | 3.2 | 0.00 | 0.00 | 0.00 | 86 | 1022.0 |
| 20260504013253 | 16 | 333 | 1.6 | 3.2 | 0.00 | 0.00 | 0.00 | 84 | 1021.9 |
| 20260504012749 | 16 | 280 | 0.0 | 1.6 | 0.00 | 0.00 | 0.00 | 83 | 1022.0 |
| 20260504012247 | 16 | 311 | 1.6 | 3.2 | 0.00 | 0.00 | 0.00 | 83 | 1021.6 |
| 20260504011744 | 16 | 312 | 3.2 | 3.2 | 0.00 | 0.00 | 0.00 | 82 | 1021.8 |
| 20260504011241 | 16 | 316 | 3.2 | 4.8 | 0.00 | 0.00 | 0.00 | 81 | 1021.7 |
| 20260504010737 | 17 | 291 | 1.6 | 3.2 | 0.00 | 0.00 | 0.00 | 79 | 1021.7 |
| 20260504010232 | 17 | 288 | 0.0 | 1.6 | 0.00 | 0.00 | 0.00 | 78 | 1021.6 |
| 20260504005730 | 17 | 287 | 1.6 | 1.6 | 0.00 | 0.00 | 0.00 | 76 | 1021.5 |
| 20260504005227 | 18 | 283 | 0.0 | 4.8 | 0.00 | 0.00 | 0.00 | 75 | 1021.5 |
| 20260504004724 | 18 | 308 | 3.2 | 3.2 | 0.00 | 0.00 | 0.00 | 73 | 1021.4 |
| 20260504004221 | 18 | 325 | 3.2 | 3.2 | 0.00 | 0.00 | 0.00 | 71 | 1021.5 |
| 20260504003718 | 18 | 320 | 4.8 | 4.8 | 0.00 | 0.00 | 0.00 | 71 | 1021.5 |
| 20260504003215 | 19 | 293 | 3.2 | 3.2 | 0.00 | 0.00 | 0.00 | 70 | 1021.6 |
| 20260504002711 | 20 | 323 | 3.2 | 4.8 | 0.00 | 0.00 | 0.00 | 67 | 1021.5 |
| 20260504002208 | 20 | 324 | 3.2 | 4.8 | 0.00 | 0.00 | 0.00 | 68 | 1021.4 |
| 20260504001707 | 20 | 323 | 3.2 | 4.8 | 0.00 | 0.00 | 0.00 | 66 | 1021.5 |
| 20260504001203 | 21 | 319 | 3.2 | 3.2 | 0.00 | 0.00 | 0.00 | 64 | 1021.5 |
| 20260504000700 | 21 | 300 | 3.2 | 3.2 | 0.00 | 0.00 | 0.00 | 62 | 1021.5 |
| 20260504000157 | 21 | 331 | 3.2 | 3.2 | 0.00 | 0.00 | 0.00 | 61 | 1021.5 |
| 20260503235655 | 21 | 322 | 1.6 | 3.2 | 0.00 | 0.00 | 0.00 | 58 | 1021.4 |
| 20260503235151 | 22 | 214 | 0.0 | 1.6 | 0.00 | 0.00 | 0.00 | 57 | 1021.7 |
| 20260503234649 | 22 | 309 | 3.2 | 3.2 | 0.00 | 0.00 | 0.00 | 57 | 1021.6 |
| 20260503234147 | 22 | 290 | 3.2 | 3.2 | 0.00 | 0.00 | 0.00 | 52 | 1021.6 |
| 20260503233644 | 22 | 216 | 3.2 | 4.8 | 0.00 | 0.00 | 0.00 | 48 | 1021.7 |
| 20260503233139 | 23 | 226 | 3.2 | 3.2 | 0.00 | 0.00 | 0.00 | 49 | 1021.9 |
| 20260503232636 | 23 | 242 | 0.0 | 0.0 | 0.00 | 0.00 | 0.00 | 48 | 1022.0 |
| 20260503232134 | 23 | 220 | 4.8 | 4.8 | 0.00 | 0.00 | 0.00 | 42 | 1022.0 |
| 20260503231632 | 23 | 237 | 1.6 | 3.2 | 0.00 | 0.00 | 0.00 | 45 | 1021.9 |
| 20260503231128 | 23 | 266 | 3.2 | 3.2 | 0.00 | 0.00 | 0.00 | 44 | 1022.0 |
| 20260503230625 | 23 | 173 | 3.2 | 6.4 | 0.00 | 0.00 | 0.00 | 43 | 1022.0 |
| 20260503230122 | 23 | 258 | 4.8 | 6.4 | 0.00 | 0.00 | 0.00 | 46 | 1021.9 |
| 20260503225620 | 23 | 243 | 3.2 | 4.8 | 0.00 | 0.00 | 0.00 | 45 | 1022.0 |
| 20260503225119 | 23 | 322 | 3.2 | 4.8 | 0.00 | 0.00 | 0.00 | 45 | 1022.1 |
| 20260503224617 | 23 | 213 | 4.8 | 4.8 | 0.00 | 0.00 | 0.00 | 45 | 1022.0 |
| 20260503224115 | 23 | 156 | 0.0 | 4.8 | 0.00 | 0.00 | 0.00 | 45 | 1022.2 |
| 20260503223613 | 23 | 260 | 3.2 | 8.0 | 0.00 | 0.00 | 0.00 | 42 | 1022.2 |
| 20260503223108 | 23 | 252 | 3.2 | 8.0 | 0.00 | 0.00 | 0.00 | 44 | 1022.1 |
| 20260503222606 | 23 | 269 | 3.2 | 4.8 | 0.00 | 0.00 | 0.00 | 45 | 1022.4 |
| 20260503222104 | 23 | 311 | 6.4 | 11.3 | 0.00 | 0.00 | 0.00 | 45 | 1022.3 |
| 20260503221602 | 23 | 207 | 1.6 | 4.8 | 0.00 | 0.00 | 0.00 | 42 | 1022.3 |
| 20260503221059 | 23 | 225 | 8.0 | 11.3 | 0.00 | 0.00 | 0.00 | 42 | 1022.2 |
| 20260503220555 | 23 | 213 | 12.9 | 14.5 | 0.00 | 0.00 | 0.00 | 43 | 1022.4 |
| 20260503220052 | 24 | 175 | 4.8 | 9.7 | 0.00 | 0.00 | 0.00 | 41 | 1022.3 |